Location: El Águila
(10.4167°N, 66.7167°W)
Time: 05:05:23
(UTC+00:00)

USA 229 - Pass Details

Date: 02 October 2022
Orbit: 925 x 1287 km, 63.4° (Epoch: 21 November)

Event Time Altitude Azimuth Distance (km) Brightness Sun altitude
Rises 23:14:16 0° 349° (N) 4,141 6.9 -15.0°
Reaches altitude 10° 23:17:13 10° 357° (N) 3,213 6.2 -15.7°
Maximum altitude 23:24:29 40° 65° (ENE) 1,788 4.4 -17.5°
Enters shadow 23:29:19 21° 121° (ESE) 2,546 5.2 -18.7°
